Year,Month,Day,Hour,Minute,Value (Times are PST for temperature in C)
2014,11,13,00,00,2.60
2014,11,13,00,01,2.60
2014,11,13,00,02,2.60
2014,11,13,00,03,2.60
2014,11,13,00,04,2.50
2014,11,13,00,05,2.50
2014,11,13,00,06,2.50
2014,11,13,00,07,2.50
2014,11,13,00,08,2.50
2014,11,13,00,09,2.40
2014,11,13,00,10,2.40
2014,11,13,00,11,2.40
2014,11,13,00,12,2.40
2014,11,13,00,13,2.40
2014,11,13,00,14,2.30
2014,11,13,00,15,2.30
2014,11,13,00,16,2.30
2014,11,13,00,17,2.30
2014,11,13,00,18,2.30
2014,11,13,00,19,2.20
2014,11,13,00,20,2.20
2014,11,13,00,21,2.20
2014,11,13,00,22,2.20
2014,11,13,00,23,2.20
2014,11,13,00,24,2.20
2014,11,13,00,25,2.20
2014,11,13,00,26,2.20
2014,11,13,00,27,2.20
2014,11,13,00,28,2.20
2014,11,13,00,29,2.20
2014,11,13,00,30,2.20
2014,11,13,00,31,2.20
2014,11,13,00,32,2.20
2014,11,13,00,33,2.20
2014,11,13,00,34,2.20
2014,11,13,00,35,2.20
2014,11,13,00,36,2.20
2014,11,13,00,37,2.20
2014,11,13,00,38,2.20
2014,11,13,00,39,2.20
2014,11,13,00,40,2.20
2014,11,13,00,41,2.20
2014,11,13,00,42,2.20
2014,11,13,00,43,2.20
2014,11,13,00,44,2.20
2014,11,13,00,45,2.20
2014,11,13,00,46,2.20
2014,11,13,00,47,2.20
2014,11,13,00,48,2.20
2014,11,13,00,49,2.20
2014,11,13,00,50,2.10
2014,11,13,00,51,2.10
2014,11,13,00,52,2.10
2014,11,13,00,53,2.10
2014,11,13,00,54,2.10
2014,11,13,00,55,2.00
2014,11,13,00,56,2.10
2014,11,13,00,57,2.10
2014,11,13,00,58,2.10
2014,11,13,00,59,2.10
2014,11,13,01,00,2.10
2014,11,13,01,01,2.10
2014,11,13,01,02,2.10
2014,11,13,01,03,2.10
2014,11,13,01,04,2.10
2014,11,13,01,05,2.10
2014,11,13,01,06,2.10
2014,11,13,01,07,2.10
2014,11,13,01,08,2.10
2014,11,13,01,09,2.00
2014,11,13,01,10,2.00
2014,11,13,01,11,2.00
2014,11,13,01,12,2.00
2014,11,13,01,13,2.00
2014,11,13,01,14,2.00
2014,11,13,01,15,2.00
2014,11,13,01,16,2.00
2014,11,13,01,17,2.00
2014,11,13,01,18,2.00
2014,11,13,01,19,2.00
2014,11,13,01,20,2.00
2014,11,13,01,21,2.00
2014,11,13,01,22,1.90
2014,11,13,01,23,1.90
2014,11,13,01,24,1.90
2014,11,13,01,25,1.90
2014,11,13,01,26,1.90
2014,11,13,01,27,1.90
2014,11,13,01,28,1.80
2014,11,13,01,29,1.80
2014,11,13,01,30,1.80
2014,11,13,01,31,1.80
2014,11,13,01,32,1.80
2014,11,13,01,33,1.80
2014,11,13,01,34,1.80
2014,11,13,01,35,1.80
2014,11,13,01,36,1.80
2014,11,13,01,37,1.80
2014,11,13,01,38,1.80
2014,11,13,01,39,1.80
2014,11,13,01,40,1.80
2014,11,13,01,41,1.80
2014,11,13,01,42,1.80
2014,11,13,01,43,1.80
2014,11,13,01,44,1.80
2014,11,13,01,45,1.80
2014,11,13,01,46,1.80
2014,11,13,01,47,1.80
2014,11,13,01,48,1.80
2014,11,13,01,49,1.80
2014,11,13,01,50,1.80
2014,11,13,01,51,1.80
2014,11,13,01,52,1.80
2014,11,13,01,53,1.80
2014,11,13,01,54,1.80
2014,11,13,01,55,1.80
2014,11,13,01,56,1.80
2014,11,13,01,57,1.80
2014,11,13,01,58,1.80
2014,11,13,01,59,1.80
2014,11,13,02,00,1.80
2014,11,13,02,01,1.80
2014,11,13,02,02,1.80
2014,11,13,02,03,1.80
2014,11,13,02,04,1.80
2014,11,13,02,05,1.80
2014,11,13,02,06,1.80
2014,11,13,02,07,1.80
2014,11,13,02,08,1.80
2014,11,13,02,09,1.70
2014,11,13,02,10,1.70
2014,11,13,02,11,1.70
2014,11,13,02,12,1.70
2014,11,13,02,13,1.70
2014,11,13,02,14,1.70
2014,11,13,02,15,1.70
2014,11,13,02,16,1.70
2014,11,13,02,17,1.70
2014,11,13,02,18,1.70
2014,11,13,02,19,1.70
2014,11,13,02,20,1.70
2014,11,13,02,21,1.70
2014,11,13,02,22,1.70
2014,11,13,02,23,1.60
2014,11,13,02,24,1.60
2014,11,13,02,25,1.60
2014,11,13,02,26,1.60
2014,11,13,02,27,1.60
2014,11,13,02,28,1.60
2014,11,13,02,29,1.60
2014,11,13,02,30,1.50
2014,11,13,02,31,1.50
2014,11,13,02,32,1.50
2014,11,13,02,33,1.50
2014,11,13,02,34,1.40
2014,11,13,02,35,1.40
2014,11,13,02,36,1.40
2014,11,13,02,37,1.40
2014,11,13,02,38,1.40
2014,11,13,02,39,1.40
2014,11,13,02,40,1.30
2014,11,13,02,41,1.30
2014,11,13,02,42,1.30
2014,11,13,02,43,1.30
2014,11,13,02,44,1.30
2014,11,13,02,45,1.30
2014,11,13,02,46,1.30
2014,11,13,02,47,1.30
2014,11,13,02,48,1.30
2014,11,13,02,49,1.40
2014,11,13,02,50,1.40
2014,11,13,02,51,1.40
2014,11,13,02,52,1.40
2014,11,13,02,53,1.40
2014,11,13,02,54,1.50
2014,11,13,02,55,1.50
2014,11,13,02,56,1.50
2014,11,13,02,57,1.50
2014,11,13,02,58,1.50
2014,11,13,02,59,1.50
2014,11,13,03,00,1.50
2014,11,13,03,01,1.50
2014,11,13,03,02,1.50
2014,11,13,03,03,1.50
2014,11,13,03,04,1.50
2014,11,13,03,05,1.50
2014,11,13,03,06,1.50
2014,11,13,03,07,1.50
2014,11,13,03,08,1.50
2014,11,13,03,09,1.50
2014,11,13,03,10,1.50
2014,11,13,03,11,1.50
2014,11,13,03,12,1.40
2014,11,13,03,13,1.40
2014,11,13,03,14,1.40
2014,11,13,03,15,1.40
2014,11,13,03,16,1.30
2014,11,13,03,17,1.30
2014,11,13,03,18,1.30
2014,11,13,03,19,1.30
2014,11,13,03,20,1.30
2014,11,13,03,21,1.30
2014,11,13,03,22,1.30
2014,11,13,03,23,1.30
2014,11,13,03,24,1.30
2014,11,13,03,25,1.30
2014,11,13,03,26,1.20
2014,11,13,03,27,1.20
2014,11,13,03,28,1.20
2014,11,13,03,29,1.10
2014,11,13,03,30,1.10
2014,11,13,03,31,1.10
2014,11,13,03,32,1.00
2014,11,13,03,33,1.00
2014,11,13,03,34,1.00
2014,11,13,03,35,0.90
2014,11,13,03,36,0.90
2014,11,13,03,37,0.80
2014,11,13,03,38,0.80
2014,11,13,03,39,0.80
2014,11,13,03,40,0.80
2014,11,13,03,41,0.80
2014,11,13,03,42,0.80
2014,11,13,03,43,0.70
2014,11,13,03,44,0.70
2014,11,13,03,45,0.70
2014,11,13,03,46,0.70
2014,11,13,03,47,0.70
2014,11,13,03,48,0.70
2014,11,13,03,49,0.70
2014,11,13,03,50,0.60
2014,11,13,03,51,0.60
2014,11,13,03,52,0.60
2014,11,13,03,53,0.60
2014,11,13,03,54,0.50
2014,11,13,03,55,0.50
2014,11,13,03,56,0.40
2014,11,13,03,57,0.40
2014,11,13,03,58,0.40
2014,11,13,03,59,0.40
2014,11,13,04,00,0.30
2014,11,13,04,01,0.30
2014,11,13,04,02,0.30
2014,11,13,04,03,0.20
2014,11,13,04,04,0.20
2014,11,13,04,05,0.10
2014,11,13,04,06,0.10
2014,11,13,04,07,0.10
2014,11,13,04,08,0.00
2014,11,13,04,09,-0.10
2014,11,13,04,10,-0.10
2014,11,13,04,11,-0.20
2014,11,13,04,12,-0.20
2014,11,13,04,13,-0.30
2014,11,13,04,14,-0.40
2014,11,13,04,15,-0.40
2014,11,13,04,16,-0.40
2014,11,13,04,17,-0.40
2014,11,13,04,18,-0.40
2014,11,13,04,19,-0.40
2014,11,13,04,20,-0.40
2014,11,13,04,21,-0.40
2014,11,13,04,22,-0.40
2014,11,13,04,23,-0.40
2014,11,13,04,24,-0.40
2014,11,13,04,25,-0.40
2014,11,13,04,26,-0.40
2014,11,13,05,17,-1.10
2014,11,13,05,18,-1.10
2014,11,13,05,19,-1.10
2014,11,13,05,20,-1.10
2014,11,13,05,21,-1.10
2014,11,13,05,22,-1.20
2014,11,13,05,23,-1.20
2014,11,13,05,24,-1.20
2014,11,13,05,25,-1.20
2014,11,13,05,26,-1.30
2014,11,13,05,27,-1.30
2014,11,13,05,28,-1.30
2014,11,13,05,29,-1.40
2014,11,13,05,30,-1.40
2014,11,13,05,31,-1.40
2014,11,13,05,32,-1.40
2014,11,13,05,33,-1.40
2014,11,13,05,34,-1.40
2014,11,13,05,35,-1.50
2014,11,13,05,36,-1.50
2014,11,13,05,37,-1.50
2014,11,13,05,38,-1.50
2014,11,13,05,39,-1.50
2014,11,13,05,40,-1.50
2014,11,13,05,41,-1.50
2014,11,13,05,42,-1.50
2014,11,13,05,43,-1.50
2014,11,13,05,44,-1.50
2014,11,13,05,45,-1.50
2014,11,13,05,46,-1.40
2014,11,13,05,47,-1.40
2014,11,13,05,48,-1.40
2014,11,13,05,49,-1.40
2014,11,13,05,50,-1.40
2014,11,13,05,51,-1.30
2014,11,13,05,52,-1.30
2014,11,13,05,53,-1.20
2014,11,13,05,54,-1.20
2014,11,13,05,55,-1.10
2014,11,13,05,56,-1.10
2014,11,13,05,57,-1.10
2014,11,13,05,58,-1.10
2014,11,13,05,59,-1.10
2014,11,13,06,00,-1.00
2014,11,13,06,01,-0.90
2014,11,13,06,02,-0.90
2014,11,13,06,03,-0.90
2014,11,13,06,04,-0.90
2014,11,13,06,05,-0.90
2014,11,13,06,06,-0.90
2014,11,13,06,07,-0.80
2014,11,13,06,08,-0.80
2014,11,13,06,09,-0.80
2014,11,13,06,10,-0.80
2014,11,13,06,11,-0.80
2014,11,13,06,12,-0.80
2014,11,13,06,13,-0.80
2014,11,13,06,14,-0.70
2014,11,13,06,15,-0.70
2014,11,13,06,16,-0.70
2014,11,13,06,17,-0.70
2014,11,13,06,18,-0.60
2014,11,13,06,19,-0.60
2014,11,13,06,20,-0.60
2014,11,13,06,21,-0.60
2014,11,13,06,22,-0.60
2014,11,13,06,23,-0.60
2014,11,13,06,24,-0.60
2014,11,13,06,25,-0.60
2014,11,13,06,26,-0.50
2014,11,13,06,27,-0.40
2014,11,13,06,28,-0.40
2014,11,13,06,29,-0.40
2014,11,13,06,30,-0.30
2014,11,13,06,31,-0.30
2014,11,13,06,32,-0.20
2014,11,13,06,33,-0.20
2014,11,13,06,34,-0.10
2014,11,13,06,35,-0.10
2014,11,13,06,36,-0.10
2014,11,13,06,37,-0.10
2014,11,13,06,38,0.00
2014,11,13,06,39,0.10
2014,11,13,06,40,0.10
2014,11,13,06,41,0.10
2014,11,13,06,42,0.10
2014,11,13,06,43,0.10
2014,11,13,06,44,0.20
2014,11,13,06,45,0.30
2014,11,13,06,46,0.30
2014,11,13,06,47,0.40
2014,11,13,06,48,0.40
2014,11,13,06,49,0.40
2014,11,13,06,50,0.40
2014,11,13,06,51,0.50
2014,11,13,06,52,0.50
2014,11,13,06,53,0.60
2014,11,13,06,54,0.60
2014,11,13,06,55,0.60
2014,11,13,06,56,0.70
2014,11,13,06,57,0.70
2014,11,13,06,58,0.80
2014,11,13,06,59,0.80
2014,11,13,07,00,0.80
2014,11,13,07,01,0.90
2014,11,13,07,02,0.90
2014,11,13,07,03,1.00
2014,11,13,07,04,1.00
2014,11,13,07,05,1.00
2014,11,13,07,06,1.10
2014,11,13,07,07,1.10
2014,11,13,07,08,1.10
2014,11,13,07,09,1.20
2014,11,13,07,10,1.20
2014,11,13,07,11,1.20
2014,11,13,07,12,1.20
2014,11,13,07,13,1.20
2014,11,13,07,14,1.30
2014,11,13,07,15,1.30
2014,11,13,07,16,1.30
2014,11,13,07,17,1.30
2014,11,13,07,18,1.30
2014,11,13,07,19,1.30
2014,11,13,07,20,1.30
2014,11,13,07,21,1.30
2014,11,13,07,22,1.30
2014,11,13,07,23,1.30
2014,11,13,07,24,1.30
2014,11,13,07,25,1.30
2014,11,13,07,26,1.30
2014,11,13,07,27,1.30
2014,11,13,07,28,1.30
2014,11,13,07,29,1.30
2014,11,13,07,30,1.30
2014,11,13,07,31,1.30
2014,11,13,07,32,1.30
2014,11,13,07,33,1.30
2014,11,13,07,34,1.40
2014,11,13,07,35,1.40
2014,11,13,07,36,1.40
2014,11,13,07,37,1.40
2014,11,13,07,38,1.40
2014,11,13,07,39,1.40
2014,11,13,07,40,1.40
2014,11,13,07,41,1.40
2014,11,13,07,42,1.40
2014,11,13,07,43,1.50
2014,11,13,07,44,1.50
2014,11,13,07,45,1.50
2014,11,13,07,46,1.50
2014,11,13,07,47,1.50
2014,11,13,07,48,1.50
2014,11,13,07,49,1.60
2014,11,13,07,50,1.60
2014,11,13,07,51,1.60
2014,11,13,07,52,1.60
2014,11,13,07,53,1.60
2014,11,13,07,54,1.70
2014,11,13,07,55,1.70
2014,11,13,07,56,1.70
2014,11,13,07,57,1.70
2014,11,13,07,58,1.70
2014,11,13,07,59,1.70
2014,11,13,08,00,1.70
2014,11,13,08,01,1.70
2014,11,13,08,02,1.90
2014,11,13,08,03,1.90
2014,11,13,08,04,1.90
2014,11,13,08,05,2.00
2014,11,13,08,06,2.00
2014,11,13,08,07,2.10
2014,11,13,08,08,2.20
2014,11,13,08,09,2.20
2014,11,13,08,10,2.20
2014,11,13,08,11,2.30
2014,11,13,08,12,2.30
2014,11,13,08,13,2.40
2014,11,13,08,14,2.40
2014,11,13,08,15,2.50
2014,11,13,08,16,2.50
2014,11,13,08,17,2.50
2014,11,13,08,18,2.50
2014,11,13,08,19,2.50
2014,11,13,08,20,2.50
2014,11,13,08,21,2.50
2014,11,13,08,22,2.50
2014,11,13,08,23,2.50
2014,11,13,08,24,2.50
2014,11,13,08,25,2.50
2014,11,13,08,26,2.40
2014,11,13,08,27,2.40
2014,11,13,08,28,2.40
2014,11,13,08,29,2.30
2014,11,13,08,30,2.30
2014,11,13,08,31,2.30
2014,11,13,08,32,2.30
2014,11,13,08,33,2.30
2014,11,13,08,34,2.40
2014,11,13,08,35,2.50
2014,11,13,08,36,2.50
2014,11,13,08,37,2.50
2014,11,13,08,38,2.60
2014,11,13,08,39,2.70
2014,11,13,08,40,2.80
2014,11,13,08,41,2.80
2014,11,13,08,42,2.90
2014,11,13,08,43,2.90
2014,11,13,08,44,3.00
2014,11,13,08,45,3.10
2014,11,13,08,46,3.10
2014,11,13,08,47,3.10
2014,11,13,08,48,3.20
2014,11,13,08,49,3.20
2014,11,13,08,50,3.30
2014,11,13,08,51,3.30
2014,11,13,08,52,3.30
2014,11,13,08,53,3.30
2014,11,13,08,54,3.40
2014,11,13,08,55,3.50
2014,11,13,08,56,3.50
2014,11,13,08,57,3.60
2014,11,13,08,58,3.70
2014,11,13,08,59,3.70
2014,11,13,09,00,3.80
2014,11,13,09,01,3.80
2014,11,13,09,02,3.80
2014,11,13,09,03,3.80
2014,11,13,09,04,3.90
2014,11,13,09,05,4.00
2014,11,13,09,06,4.10
2014,11,13,09,07,4.10
2014,11,13,09,08,4.20
2014,11,13,09,09,4.20
2014,11,13,09,10,4.30
2014,11,13,09,11,4.40
2014,11,13,09,12,4.40
2014,11,13,09,13,4.50
2014,11,13,09,14,4.50
2014,11,13,09,15,4.60
2014,11,13,09,16,4.60
2014,11,13,09,17,4.60
2014,11,13,09,18,4.60
2014,11,13,09,19,4.70
2014,11,13,09,20,4.70
2014,11,13,09,21,4.80
2014,11,13,09,22,4.80
2014,11,13,09,23,4.90
2014,11,13,09,24,4.90
2014,11,13,09,25,4.90
2014,11,13,09,26,4.90
2014,11,13,09,27,5.00
2014,11,13,09,28,5.10
2014,11,13,09,29,5.10
2014,11,13,09,30,5.10
2014,11,13,09,31,5.10
2014,11,13,09,32,5.10
2014,11,13,09,33,5.20
2014,11,13,09,34,5.20
2014,11,13,09,35,5.20
2014,11,13,09,36,5.20
2014,11,13,09,37,5.20
2014,11,13,09,38,5.20
2014,11,13,09,39,5.20
2014,11,13,09,40,5.20
2014,11,13,09,41,5.20
2014,11,13,09,42,5.20
2014,11,13,09,43,5.20
2014,11,13,09,44,5.30
2014,11,13,09,45,5.30
2014,11,13,09,46,5.30
2014,11,13,09,47,5.30
2014,11,13,09,48,5.30
2014,11,13,09,49,5.30
2014,11,13,09,50,5.30
2014,11,13,09,51,5.30
2014,11,13,09,52,5.40
2014,11,13,09,53,5.40
2014,11,13,09,54,5.40
2014,11,13,09,55,5.50
2014,11,13,09,56,5.50
2014,11,13,09,57,5.50
2014,11,13,09,58,5.60
2014,11,13,09,59,5.60
2014,11,13,10,00,5.70
2014,11,13,10,01,5.70
2014,11,13,10,02,5.70
2014,11,13,10,03,5.70
2014,11,13,10,04,5.70
2014,11,13,10,05,5.80
2014,11,13,10,06,5.80
2014,11,13,10,07,5.90
2014,11,13,10,08,5.90
2014,11,13,10,09,5.90
2014,11,13,10,10,5.90
2014,11,13,10,11,6.00
2014,11,13,10,12,6.00
2014,11,13,10,13,6.00
2014,11,13,10,14,6.00
2014,11,13,10,15,6.00
2014,11,13,10,16,6.00
2014,11,13,10,17,6.00
2014,11,13,10,18,6.00
2014,11,13,10,19,6.00
2014,11,13,10,20,6.00
2014,11,13,10,21,6.00
2014,11,13,10,22,6.00
2014,11,13,10,23,6.10
2014,11,13,10,24,6.10
2014,11,13,10,25,6.10
2014,11,13,10,26,6.10
2014,11,13,10,27,6.10
2014,11,13,10,28,6.10
2014,11,13,10,29,6.10
2014,11,13,10,30,6.20
2014,11,13,10,31,6.20
2014,11,13,10,32,6.10
2014,11,13,10,33,6.10
2014,11,13,10,34,6.20
2014,11,13,10,35,6.20
2014,11,13,10,36,6.20
2014,11,13,10,37,6.20
2014,11,13,10,38,6.20
2014,11,13,10,39,6.20
2014,11,13,10,40,6.30
2014,11,13,10,41,6.30
2014,11,13,10,42,6.40
2014,11,13,10,43,6.40
2014,11,13,10,44,6.40
2014,11,13,10,45,6.40
2014,11,13,10,46,6.40
2014,11,13,10,47,6.40
2014,11,13,10,48,6.40
2014,11,13,10,49,6.40
2014,11,13,10,50,6.40
2014,11,13,10,51,6.40
2014,11,13,10,52,6.40
2014,11,13,10,53,6.40
2014,11,13,10,54,6.40
2014,11,13,10,55,6.40
2014,11,13,10,56,6.50
2014,11,13,10,57,6.60
2014,11,13,10,58,6.60
2014,11,13,10,59,6.60
2014,11,13,11,00,6.60
2014,11,13,11,01,6.60
2014,11,13,11,02,6.60
2014,11,13,11,03,6.60
2014,11,13,11,04,6.60
2014,11,13,11,05,6.60
2014,11,13,11,06,6.60
2014,11,13,11,07,6.60
2014,11,13,11,08,6.60
2014,11,13,11,09,6.60
2014,11,13,11,10,6.60
2014,11,13,11,11,6.60
2014,11,13,11,12,6.60
2014,11,13,11,13,6.60
2014,11,13,11,14,6.70
2014,11,13,11,15,6.70
2014,11,13,11,16,6.70
2014,11,13,11,17,6.70
2014,11,13,11,18,6.80
2014,11,13,11,19,6.80
2014,11,13,11,20,6.80
2014,11,13,11,21,6.80
2014,11,13,11,22,6.70
2014,11,13,11,23,6.70
2014,11,13,11,24,6.70
2014,11,13,11,25,6.60
2014,11,13,11,26,6.60
2014,11,13,11,27,6.60
2014,11,13,11,28,6.60
2014,11,13,11,29,6.60
2014,11,13,11,30,6.60
2014,11,13,11,31,6.60
2014,11,13,11,32,6.60
2014,11,13,11,33,6.70
2014,11,13,11,34,6.70
2014,11,13,11,35,6.70
2014,11,13,11,36,6.70
2014,11,13,11,37,6.70
2014,11,13,11,38,6.70
2014,11,13,11,39,6.70
2014,11,13,11,40,6.70
2014,11,13,11,41,6.70
2014,11,13,11,42,6.70
2014,11,13,11,43,6.70
2014,11,13,11,44,6.80
2014,11,13,11,45,6.80
2014,11,13,11,46,6.80
2014,11,13,11,47,6.80
2014,11,13,11,48,6.80
2014,11,13,11,49,6.80
2014,11,13,11,50,6.80
2014,11,13,11,51,6.70
2014,11,13,11,52,6.70
2014,11,13,11,53,6.70
2014,11,13,11,54,6.70
2014,11,13,11,55,6.70
2014,11,13,11,56,6.70
2014,11,13,11,57,6.80
2014,11,13,11,58,6.70
2014,11,13,11,59,6.80
2014,11,13,12,00,6.80
2014,11,13,12,01,6.90
2014,11,13,12,02,7.00
2014,11,13,12,03,7.00
2014,11,13,12,04,7.10
2014,11,13,12,05,7.10
2014,11,13,12,06,7.20
2014,11,13,12,07,7.20
2014,11,13,12,08,7.20
2014,11,13,12,09,7.20
2014,11,13,12,10,7.20
2014,11,13,12,11,7.20
2014,11,13,12,12,7.60
2014,11,13,12,13,7.60
2014,11,13,12,14,7.70
2014,11,13,12,15,7.70
2014,11,13,12,16,7.70
2014,11,13,12,17,7.60
2014,11,13,12,18,7.50
2014,11,13,12,19,7.50
2014,11,13,12,20,7.40
2014,11,13,12,21,7.30
2014,11,13,12,22,7.30
2014,11,13,12,23,7.30
2014,11,13,12,24,7.40
2014,11,13,12,25,7.40
2014,11,13,12,26,7.40
2014,11,13,12,27,7.40
2014,11,13,12,28,7.40
2014,11,13,12,29,7.40
2014,11,13,12,30,7.40
2014,11,13,12,31,7.40
2014,11,13,12,32,7.40
2014,11,13,12,33,7.40
2014,11,13,12,34,7.30
2014,11,13,12,35,7.30
2014,11,13,12,36,7.30
2014,11,13,12,37,7.30
2014,11,13,12,38,7.30
2014,11,13,12,39,7.30
2014,11,13,12,40,7.40
2014,11,13,12,41,7.50
2014,11,13,12,42,7.60
2014,11,13,12,43,7.80
2014,11,13,12,44,7.90
2014,11,13,12,45,7.90
2014,11,13,12,46,7.90
2014,11,13,12,47,8.00
2014,11,13,12,48,8.00
2014,11,13,12,49,8.00
2014,11,13,12,50,7.90
2014,11,13,12,51,7.90
2014,11,13,12,52,7.80
2014,11,13,12,53,7.70
2014,11,13,12,54,7.70
2014,11,13,12,55,7.80
2014,11,13,12,56,7.80
2014,11,13,12,57,7.80
2014,11,13,12,58,7.80
2014,11,13,12,59,7.90
2014,11,13,13,00,7.90
2014,11,13,13,01,7.80
2014,11,13,13,02,7.70
2014,11,13,13,03,7.60
2014,11,13,13,04,7.60
2014,11,13,13,05,7.60
2014,11,13,13,06,7.50
2014,11,13,13,07,7.50
2014,11,13,13,08,7.50
2014,11,13,13,09,7.50
2014,11,13,13,10,7.50
2014,11,13,13,11,7.50
2014,11,13,13,12,7.50
2014,11,13,13,13,7.50
2014,11,13,13,14,7.50
2014,11,13,13,15,7.50
2014,11,13,13,16,7.50
2014,11,13,13,17,7.50
2014,11,13,13,18,7.50
2014,11,13,13,19,7.40
2014,11,13,13,20,7.40
2014,11,13,13,21,7.40
2014,11,13,13,22,7.40
2014,11,13,13,23,7.40
2014,11,13,13,24,7.40
2014,11,13,13,25,7.50
2014,11,13,13,26,7.60
2014,11,13,13,27,7.60
2014,11,13,13,28,7.70
2014,11,13,13,29,7.70
2014,11,13,13,30,7.80
2014,11,13,13,31,7.70
2014,11,13,13,32,7.70
2014,11,13,13,33,7.60
2014,11,13,13,34,7.60
2014,11,13,13,35,7.60
2014,11,13,13,36,7.60
2014,11,13,13,37,7.70
2014,11,13,13,38,7.80
2014,11,13,13,39,7.80
2014,11,13,13,40,7.80
2014,11,13,13,41,7.80
2014,11,13,13,42,7.70
2014,11,13,13,43,7.70
2014,11,13,13,44,7.70
2014,11,13,13,45,7.70
2014,11,13,13,46,7.60
2014,11,13,13,47,7.60
2014,11,13,13,48,7.60
2014,11,13,13,49,7.70
2014,11,13,13,50,7.70
2014,11,13,13,51,7.60
2014,11,13,13,52,7.60
2014,11,13,13,53,7.60
2014,11,13,13,54,7.60
2014,11,13,13,55,7.70
2014,11,13,13,56,7.80
2014,11,13,13,57,7.90
2014,11,13,13,58,7.90
2014,11,13,13,59,7.90
2014,11,13,14,00,7.90
2014,11,13,14,01,7.90
2014,11,13,14,02,8.00
2014,11,13,14,03,8.00
2014,11,13,14,04,8.10
2014,11,13,14,05,8.20
2014,11,13,14,06,8.30
2014,11,13,14,07,8.40
2014,11,13,14,08,8.40
2014,11,13,14,09,8.50
2014,11,13,14,10,8.50
2014,11,13,14,11,8.50
2014,11,13,14,12,8.50
2014,11,13,14,13,8.50
2014,11,13,14,14,8.50
2014,11,13,14,15,8.30
2014,11,13,14,16,8.20
2014,11,13,14,17,8.10
2014,11,13,14,18,8.10
2014,11,13,14,19,8.00
2014,11,13,14,20,8.00
2014,11,13,14,21,7.90
2014,11,13,14,22,7.90
2014,11,13,14,23,7.80
2014,11,13,14,24,7.80
2014,11,13,14,25,7.80
2014,11,13,14,26,7.80
2014,11,13,14,27,7.80
2014,11,13,14,28,7.80
2014,11,13,14,29,7.80
2014,11,13,14,30,7.80
2014,11,13,14,31,7.80
2014,11,13,14,32,7.80
2014,11,13,14,33,7.80
2014,11,13,14,34,7.80
2014,11,13,14,35,7.80
2014,11,13,14,36,7.80
2014,11,13,14,37,7.80
2014,11,13,14,38,7.80
2014,11,13,14,39,7.80
2014,11,13,14,40,7.80
2014,11,13,14,41,7.80
2014,11,13,14,42,7.80
2014,11,13,14,43,7.80
2014,11,13,14,44,7.80
2014,11,13,14,45,7.80
2014,11,13,14,46,7.80
2014,11,13,14,47,7.80
2014,11,13,14,48,7.80
2014,11,13,14,49,7.90
2014,11,13,14,50,7.90
2014,11,13,14,51,7.90
2014,11,13,14,52,7.90
2014,11,13,14,53,7.90
2014,11,13,14,54,7.90
2014,11,13,14,55,7.90
2014,11,13,14,56,7.80
2014,11,13,14,57,7.80
2014,11,13,14,58,7.70
2014,11,13,14,59,7.60
2014,11,13,15,00,7.60
2014,11,13,15,01,7.60
2014,11,13,15,02,7.60
2014,11,13,15,03,7.70
2014,11,13,15,04,7.70
2014,11,13,15,05,7.80
2014,11,13,15,06,7.90
2014,11,13,15,07,7.90
2014,11,13,15,08,7.90
2014,11,13,15,09,8.00
2014,11,13,15,10,8.00
2014,11,13,15,11,8.00
2014,11,13,15,12,8.00
2014,11,13,15,13,8.00
2014,11,13,15,14,7.90
2014,11,13,15,15,7.90
2014,11,13,15,16,7.90
2014,11,13,15,17,7.90
2014,11,13,15,18,7.80
2014,11,13,15,19,7.80
2014,11,13,15,20,7.70
2014,11,13,15,21,7.60
2014,11,13,15,22,7.50
2014,11,13,15,23,7.50
2014,11,13,15,24,7.40
2014,11,13,15,25,7.40
2014,11,13,15,26,7.30
2014,11,13,15,27,7.30
2014,11,13,15,28,7.30
2014,11,13,15,29,7.30
2014,11,13,15,30,7.30
2014,11,13,15,31,7.30
2014,11,13,15,32,7.30
2014,11,13,15,33,7.30
2014,11,13,15,34,7.30
2014,11,13,15,35,7.30
2014,11,13,15,36,7.30
2014,11,13,15,37,7.30
2014,11,13,15,38,7.30
2014,11,13,15,39,7.30
2014,11,13,15,40,7.30
2014,11,13,15,41,7.30
2014,11,13,15,42,7.30
2014,11,13,15,43,7.30
2014,11,13,15,44,7.30
2014,11,13,15,45,7.30
2014,11,13,15,46,7.30
2014,11,13,15,47,7.30
2014,11,13,15,48,7.30
2014,11,13,15,49,7.30
2014,11,13,15,50,7.30
2014,11,13,15,51,7.30
2014,11,13,15,52,7.30
2014,11,13,15,53,7.20
2014,11,13,15,54,7.20
2014,11,13,15,55,7.20
2014,11,13,15,56,7.20
2014,11,13,15,57,7.20
2014,11,13,15,58,7.10
2014,11,13,15,59,7.10
2014,11,13,16,00,7.10
2014,11,13,16,01,7.10
2014,11,13,16,02,7.10
2014,11,13,16,03,7.10
2014,11,13,16,04,7.10
2014,11,13,16,05,7.10
2014,11,13,16,06,7.10
2014,11,13,16,07,7.10
2014,11,13,16,08,7.10
2014,11,13,16,09,7.10
2014,11,13,16,10,7.10
2014,11,13,16,11,7.10
2014,11,13,16,12,7.10
2014,11,13,16,13,7.10
2014,11,13,16,14,7.00
2014,11,13,16,15,7.00
2014,11,13,16,16,7.00
2014,11,13,16,17,6.90
2014,11,13,16,18,6.80
2014,11,13,16,19,6.80
2014,11,13,16,20,6.80
2014,11,13,16,21,6.80
2014,11,13,16,22,6.70
2014,11,13,16,23,6.70
2014,11,13,16,24,6.60
2014,11,13,16,25,6.60
2014,11,13,16,26,6.60
2014,11,13,16,27,6.50
2014,11,13,16,28,6.40
2014,11,13,16,29,6.40
2014,11,13,16,30,6.40
2014,11,13,16,31,6.30
2014,11,13,16,32,6.30
2014,11,13,16,33,6.20
2014,11,13,16,34,6.20
2014,11,13,16,35,6.20
2014,11,13,16,36,6.20
2014,11,13,16,37,6.10
2014,11,13,16,38,6.10
2014,11,13,16,39,6.00
2014,11,13,16,40,6.00
2014,11,13,16,41,6.00
2014,11,13,16,42,5.90
2014,11,13,16,43,5.80
2014,11,13,16,44,5.80
2014,11,13,16,45,5.70
2014,11,13,16,46,5.70
2014,11,13,16,47,5.70
2014,11,13,16,48,5.70
2014,11,13,16,49,5.60
2014,11,13,16,50,5.60
2014,11,13,16,51,5.50
2014,11,13,16,52,5.50
2014,11,13,16,53,5.50
2014,11,13,16,54,5.40
2014,11,13,16,55,5.40
2014,11,13,16,56,5.40
2014,11,13,16,57,5.30
2014,11,13,16,58,5.30
2014,11,13,16,59,5.30
2014,11,13,17,00,5.30
2014,11,13,17,01,5.30
2014,11,13,17,02,5.30
2014,11,13,17,03,5.20
2014,11,13,17,04,5.20
2014,11,13,17,05,5.20
2014,11,13,17,06,5.10
2014,11,13,17,07,5.10
2014,11,13,17,08,5.10
2014,11,13,17,09,5.10
2014,11,13,17,10,5.10
2014,11,13,17,11,5.00
2014,11,13,17,12,4.90
2014,11,13,17,13,4.90
2014,11,13,17,14,4.90
2014,11,13,17,15,4.90
2014,11,13,17,16,4.90
2014,11,13,17,17,4.80
2014,11,13,17,18,4.80
2014,11,13,17,19,4.70
2014,11,13,17,20,4.70
2014,11,13,17,21,4.60
2014,11,13,17,22,4.60
2014,11,13,17,23,4.60
2014,11,13,17,24,4.50
2014,11,13,17,25,4.50
2014,11,13,17,26,4.40
2014,11,13,17,27,4.40
2014,11,13,17,28,4.30
2014,11,13,17,29,4.30
2014,11,13,17,30,4.20
2014,11,13,17,31,4.20
2014,11,13,17,32,4.20
2014,11,13,17,33,4.20
2014,11,13,17,34,4.10
2014,11,13,17,35,4.10
2014,11,13,17,36,4.00
2014,11,13,17,37,4.00
2014,11,13,17,38,4.00
2014,11,13,17,39,3.90
2014,11,13,17,40,3.90
2014,11,13,17,41,3.80
2014,11,13,17,42,3.80
2014,11,13,17,43,3.80
2014,11,13,17,44,3.80
2014,11,13,17,45,3.70
2014,11,13,17,46,3.70
2014,11,13,17,47,3.70
2014,11,13,17,48,3.60
2014,11,13,17,49,3.60
2014,11,13,17,50,3.60
2014,11,13,17,51,3.50
2014,11,13,17,52,3.50
2014,11,13,17,53,3.50
2014,11,13,17,54,3.50
2014,11,13,17,55,3.40
2014,11,13,17,56,3.40
2014,11,13,17,57,3.40
2014,11,13,17,58,3.30
2014,11,13,17,59,3.30
2014,11,13,18,00,3.30
2014,11,13,18,01,3.30
2014,11,13,18,02,3.20
2014,11,13,18,03,3.20
2014,11,13,18,04,3.20
2014,11,13,18,05,3.10
2014,11,13,18,06,3.10
2014,11,13,18,07,3.10
2014,11,13,18,08,3.10
2014,11,13,18,09,3.10
2014,11,13,18,10,3.10
2014,11,13,18,11,3.00
2014,11,13,18,12,2.90
2014,11,13,18,13,2.90
2014,11,13,18,14,2.90
2014,11,13,18,15,2.80
2014,11,13,18,16,2.80
2014,11,13,18,17,2.70
2014,11,13,18,18,2.70
2014,11,13,18,19,2.70
2014,11,13,18,20,2.70
2014,11,13,18,21,2.70
2014,11,13,18,22,2.60
2014,11,13,18,23,2.50
2014,11,13,18,24,2.50
2014,11,13,18,25,2.50
2014,11,13,18,26,2.40
2014,11,13,18,27,2.30
2014,11,13,18,28,2.30
2014,11,13,18,29,2.20
2014,11,13,18,30,2.20
2014,11,13,18,31,2.20
2014,11,13,18,32,2.20
2014,11,13,18,33,2.10
2014,11,13,18,34,2.10
2014,11,13,18,35,2.00
2014,11,13,18,36,2.00
2014,11,13,18,37,1.90
2014,11,13,18,38,1.90
2014,11,13,18,39,1.90
2014,11,13,18,40,1.80
2014,11,13,18,41,1.80
2014,11,13,18,42,1.80
2014,11,13,18,43,1.80
2014,11,13,18,44,1.70
2014,11,13,18,45,1.70
2014,11,13,18,46,1.70
2014,11,13,18,47,1.60
2014,11,13,18,48,1.60
2014,11,13,18,49,1.50
2014,11,13,18,50,1.50
2014,11,13,18,51,1.50
2014,11,13,18,52,1.40